Temperature
23 23 23 22 22 21 21 21 20 20 20 20 19 19 19 19 19 19 19 19 19 19 19 19 18 18 18 18 18 18 18 18 18 18 18 19 19 19 19 19 18 18 18
23 23 22 22 22 22 21 21 21 20 20 20 20 20 19 19 19 19 19 19 19 19 19 19 19 19 18 18 18 18 18 18 18 18 18 18 19 19 19 19 18 18 18
23 23 23 22 22 22 22 21 21 21 21 20 20 20 19 19 19 19 19 19 19 19 19 19 19 19 19 18 18 18 18 18 18 18 18 18 18 18 19 19 19 18 18
24 23 23 23 23 23 22 22 21 21 21 20 20 20 20 20 20 19 19 19 19 19 19 19 19 19 19 19 18 18 18 18 18 18 18 18 18 18 18 18 18 18 18
24 24 23 23 23 23 23 22 22 21 21 21 20 20 20 20 20 20 19 19 19 19 19 19 19 19 19 19 18 18 18 18 18 18 18 18 18 18 18 18 18 18 18
24 24 23 23 23 23 22 22 22 22 21 21 21 20 20 20 20 20 20 19 19 19 19 19 19 19 19 19 18 18 18 18 18 18 18 18 18 18 18 18 18 18 18
24 24 23 23 23 22 22 22 22 22 21 21 21 21 20 20 20 20 20 20 19 19 19 19 19 19 18 18 18 18 18 18 18 18 18 18 18 18 18 18 18 17 18
24 24 24 24 23 23 23 22 22 22 22 21 21 21 20 20 20 20 20 20 20 20 19 19 19 19 18 18 18 18 18 18 18 18 18 18 18 18 17 17 17 17 17
24 24 24 24 23 23 23 23 22 22 22 21 21 21 20 20 20 20 19 20 20 20 19 19 19 19 18 18 18 18 18 18 18 18 18 18 18 17 17 17 17 17 17
24 24 23 23 23 23 23 22 22 22 22 22 21 21 21 20 20 20 19 19 19 19 19 19 19 18 18 18 18 18 18 18 18 18 17 17 17 17 17 17 17 17 17
24 24 23 23 23 23 22 22 22 22 21 21 21 21 21 20 20 20 19 19 19 19 19 19 19 18 18 18 18 18 18 18 18 17 17 18 18 17 17 17 17 17 17
23 23 23 23 23 22 22 22 21 21 21 21 21 20 20 20 20 19 19 19 19 19 19 18 18 18 18 18 18 18 18 18 17 17 17 17 17 17 17 17 17 17 17
23 23 23 23 22 22 22 22 21 21 21 21 20 20 20 20 20 19 19 19 19 19 19 18 18 18 18 18 18 17 17 17 17 17 17 17 17 17 17 17 17 17 17
22 22 22 22 22 22 22 22 21 21 21 21 20 20 20 20 20 19 19 19 19 19 18 18 18 18 18 18 17 17 17 17 17 17 17 17 17 17 17 17 17 17 17
21 21 22 22 22 22 21 21 21 21 20 20 20 20 20 19 19 19 19 18 18 18 18 18 18 17 17 17 17 17 17 17 17 17 17 17 17 17 17 17 17 17 16
21 21 21 21 21 21 21 21 21 20 20 20 20 20 19 19 19 18 18 18 18 18 18 17 17 17 17 17 17 17 17 17 17 17 17 17 17 17 17 16 16 16 16
21 21 21 21 21 21 21 20 20 20 19 19 19 19 19 18 18 18 18 18 17 17 17 17 17 17 17 17 17 17 17 17 17 17 17 17 17 16 16 16 16 16 16
20 21 20 20 20 20 20 20 20 20 19 19 19 18 18 18 18 17 17 17 17 17 17 17 17 17 17 17 17 16 16 16 16 16 16 16 16 16 16 16 16 16 16
20 20 20 20 20 20 20 19 19 19 18 18 18 18 18 18 18 17 17 17 17 17 17 17 16 17 17 16 16 16 16 16 16 16 16 16 16 16 16 16 16 16 16
20 20 20 19 19 19 19 19 19 18 18 18 18 17 17 18 17 17 17 17 17 17 17 16 16 16 16 16 16 16 16 16 16 16 16 16 16 16 16 15 15 15 15
19 19 19 19 19 19 19 18 18 18 18 18 17 17 17 17 17 17 16 16 16 16 16 16 16 16 16 16 16 16 15 15 16 16 16 15 15 15 15 15 15 15 15
18 18 18 18 18 18 18 18 18 17 17 17 17 17 16 16 16 16 16 16 16 16 16 16 15 15 15 15 15 15 15 15 15 15 15 15 15 15 15 15 15 15 14
18 18 17 17 17 17 17 17 17 17 17 16 16 16 16 16 16 16 16 15 15 15 15 15 15 15 15 15 15 15 15 15 15 15 15 15 15 14 14 14 14 14 14
17 17 17 17 16 17 16 16 16 16 16 16 16 16 16 15 15 15 15 15 15 15 15 15 15 15 15 15 15 15 14 14 14 14 14 14 14 14 14 14 14 13 13
17 17 17 16 16 16 16 16 16 16 15 15 15 15 15 15 15 15 15 15 15 15 15 15 15 14 14 15 15 14 14 14 14 14 14 14 13 13 13 13 13 13 13
16 16 16 16 15 15 15 15 15 15 15 15 15 15 15 15 14 14 14 14 14 14 14 14 14 14 14 14 14 14 14 14 13 13 13 13 13 13 13 13 13 13 12
Wind_Speed
13 14 16 16 15 13 12 12 11 11 8 6 5 4 4 4 3 4 7 8 8 8 6 4 3 3 3 4 4 2 2 2 1 0 2 3 3 3 3 3 3 5 8
12 14 14 15 15 15 14 12 12 12 10 7 6 4 4 3 4 3 5 8 8 7 6 4 4 4 3 3 3 3 2 1 1 2 0 2 4 3 3 2 2 3 3
18 17 16 16 15 16 16 14 12 11 11 9 5 4 2 1 2 3 3 5 7 7 6 5 4 4 4 3 4 4 4 2 2 2 3 2 3 3 3 2 2 2 1
15 16 17 17 18 17 15 13 13 12 11 10 8 7 6 6 6 5 5 5 6 6 6 5 5 5 4 4 4 4 3 3 2 2 2 3 3 2 2 3 3 2 2
16 17 18 18 17 16 15 13 13 12 11 10 10 9 7 6 4 4 5 5 5 5 6 6 5 5 4 4 4 3 4 3 3 2 2 2 1 2 2 3 3 2 2
13 14 14 13 12 13 13 13 13 13 12 12 10 10 9 7 6 6 6 5 4 4 5 5 5 5 4 5 5 4 5 4 4 3 3 2 2 3 3 3 3 2 3
11 10 11 13 14 15 14 14 14 13 13 12 11 11 10 9 9 8 7 7 5 4 6 6 5 5 5 5 4 4 4 5 4 4 4 3 4 3 3 3 3 2 2
11 11 12 14 15 16 15 15 15 14 14 13 12 10 10 8 7 7 7 8 7 6 6 6 6 6 6 6 4 4 4 4 4 5 4 3 4 3 3 3 3 2 2
10 10 10 10 11 14 15 16 16 14 14 14 12 10 10 8 7 8 7 6 6 6 6 6 6 6 6 6 5 4 5 4 4 4 4 4 3 3 3 3 4 3 2
7 9 9 9 9 10 11 12 13 13 12 12 12 11 10 9 8 7 7 6 6 5 5 6 6 6 6 5 5 4 4 4 4 3 3 3 3 3 2 3 3 3 4
5 7 8 8 8 8 9 10 11 10 10 11 10 10 9 9 8 7 7 7 6 6 6 6 6 6 6 5 5 5 5 4 4 4 3 4 3 3 2 2 3 3 3
2 4 6 6 6 8 8 9 10 10 10 10 9 9 8 8 7 7 7 6 6 6 6 6 6 6 6 6 6 6 5 5 5 5 4 4 3 4 3 3 3 3 3
3 2 4 4 5 6 8 8 9 9 9 9 8 8 8 8 8 7 6 6 6 5 6 6 7 7 6 6 6 6 6 5 5 5 5 5 4 5 4 4 4 3 3
4 3 4 3 3 4 6 8 9 9 9 9 9 8 8 9 9 8 7 6 6 6 6 6 6 7 7 7 6 6 5 5 5 5 6 6 6 6 5 5 4 3 3
4 3 3 2 2 2 3 6 7 7 9 9 9 9 7 7 7 7 6 6 6 7 6 6 6 6 6 6 6 6 6 6 5 5 5 6 7 8 6 5 4 4 3
4 4 3 2 2 3 4 5 6 7 8 9 8 7 6 6 7 7 6 6 6 6 6 6 6 6 6 7 9 8 6 5 6 5 5 6 6 8 8 8 8 7 6
4 3 3 3 3 4 5 5 6 7 7 7 6 6 6 5 6 7 6 6 6 5 5 6 6 6 7 8 9 9 7 6 6 6 5 5 5 5 4 5 6 7 9
4 3 2 2 1 1 3 4 5 7 8 7 6 6 7 6 5 5 5 5 4 4 4 5 6 6 6 7 7 7 6 5 6 6 6 6 5 4 4 4 3 4 5
3 3 3 3 2 2 2 3 4 6 6 6 6 7 7 6 6 5 5 5 4 4 4 4 5 6 6 7 6 5 4 4 4 4 4 4 4 5 5 4 4 4 4
2 2 3 3 2 1 2 3 5 6 6 6 6 6 7 7 6 6 5 4 4 4 4 4 4 5 6 6 6 6 3 3 3 3 2 3 4 4 5 5 5 5 5
2 2 3 3 1 2 3 3 4 5 6 6 5 5 6 6 6 5 4 3 3 3 4 4 4 5 6 6 7 8 5 5 4 3 3 3 4 5 6 6 6 7 5
2 2 2 2 1 2 3 3 2 3 4 4 4 5 5 5 4 4 4 3 4 4 4 3 4 4 5 6 7 8 7 6 4 4 4 4 5 6 6 5 6 6 4
2 2 2 2 1 1 3 2 2 2 2 3 3 4 4 4 4 4 4 4 4 4 5 4 5 5 4 4 7 7 7 7 4 4 5 4 5 5 4 5 5 4 3
2 2 2 1 1 1 1 1 1 1 2 3 3 3 3 3 3 3 4 4 5 5 5 5 5 4 3 3 3 4 4 4 4 3 3 3 4 4 4 3 3 3 4
2 2 3 2 1 0 1 1 1 2 1 2 2 2 3 3 3 3 3 4 5 5 6 5 5 5 5 7 8 6 5 4 4 2 1 0 1 2 2 2 3 2 2
2 2 2 2 1 0 1 1 0 1 2 2 2 3 3 3 3 3 2 2 4 6 7 8 8 6 8 8 8 7 6 6 6 4 2 3 3 4 4 4 3 3 3
Wind_Direction
180 174 174 173 170 170 170 170 172 177 172 171 175 178 185 190 187 191 191 190 190 185 176 189 191 185 185 200 198 190 209 242 204 347 320 315 291 262 261 248 231 228 224
172 175 174 174 176 176 176 174 176 178 178 182 181 179 172 185 190 196 190 195 194 189 182 177 184 188 189 195 193 178 176 240 178 156 101 335 334 317 280 266 246 251 231
180 179 178 179 179 182 181 181 180 180 181 179 170 166 144 156 192 204 200 204 195 192 184 178 178 184 185 200 206 186 173 204 237 185 161 169 242 302 318 291 271 264 247
180 181 180 181 184 187 184 181 180 181 183 178 176 175 182 192 202 199 199 205 198 192 190 183 181 185 185 194 209 193 184 176 215 245 218 197 181 190 298 319 305 290 259
181 186 187 186 185 184 183 183 181 183 184 183 184 184 194 199 195 189 193 204 209 203 197 192 189 195 196 201 205 199 195 187 193 208 222 229 217 193 194 271 303 319 286
190 189 187 181 182 182 183 181 182 187 187 186 186 190 195 194 189 193 197 202 208 213 211 201 199 202 202 206 209 207 205 202 199 205 198 193 201 208 197 229 259 271 282
191 187 182 183 184 183 184 184 186 190 189 188 193 196 197 197 199 200 199 197 201 209 215 210 205 208 209 208 207 207 216 210 204 210 215 213 219 200 188 199 237 256 274
187 182 184 187 187 186 186 186 189 193 193 194 196 199 197 200 205 204 201 201 203 208 208 206 206 206 204 211 208 210 216 213 211 221 217 220 230 210 197 193 191 246 284
181 182 182 182 185 188 191 190 190 193 194 196 195 196 198 198 203 203 202 203 206 209 207 207 207 208 206 207 202 214 219 215 218 226 223 225 235 224 215 199 182 182 230
181 182 181 181 186 190 192 189 190 193 193 193 196 199 197 196 198 197 199 201 204 209 200 204 205 206 207 205 204 215 217 212 225 224 222 231 238 235 222 208 201 187 192
178 183 184 180 182 178 177 183 189 191 192 195 197 197 195 195 196 197 200 205 206 202 199 200 198 200 204 204 202 211 207 210 225 230 219 232 237 236 230 220 210 199 184
140 174 172 170 173 178 181 183 184 190 193 192 190 192 188 188 194 199 202 203 204 205 203 199 196 202 204 202 203 212 210 209 220 227 225 237 242 238 227 216 218 213 200
85 104 136 158 175 179 183 186 184 189 189 183 182 185 188 188 193 198 197 199 203 204 207 198 198 201 201 202 209 210 210 208 213 217 223 235 230 237 234 223 223 222 217
103 89 92 119 165 176 186 185 190 187 183 180 181 187 194 195 197 197 194 197 201 204 207 203 203 202 201 202 206 207 212 214 217 218 221 225 221 226 226 228 226 218 208
118 114 105 102 123 156 178 180 181 181 181 180 184 194 200 201 196 194 197 201 207 210 204 200 202 202 200 202 199 207 214 215 221 227 227 229 226 226 224 227 220 211 208
145 140 129 112 144 165 180 173 172 173 171 178 187 188 187 196 199 198 196 198 206 208 200 203 203 202 206 208 206 205 215 218 219 230 239 241 234 234 232 232 219 207 205
157 150 150 182 181 179 176 178 182 169 165 172 179 179 185 196 206 198 190 198 204 202 204 207 200 205 212 212 214 210 208 217 222 225 230 243 245 236 227 232 227 225 220
157 152 159 170 171 193 173 170 163 164 166 171 178 184 186 192 188 182 190 201 203 204 215 223 216 211 218 215 219 215 210 221 232 230 224 227 242 239 220 211 224 239 238
165 165 165 169 166 166 178 155 152 157 162 174 185 190 184 181 179 187 203 208 205 211 220 226 223 219 225 218 214 197 200 220 239 240 230 222 226 240 210 196 219 248 266
138 144 141 127 125 158 161 143 156 160 175 186 192 193 189 186 191 201 209 210 210 219 224 231 222 218 220 215 205 195 199 216 232 245 241 227 226 220 196 199 208 231 252
115 111 114 111 125 128 119 126 154 178 188 184 187 194 191 192 193 198 205 204 206 213 221 226 229 217 214 212 204 199 198 207 212 218 233 238 229 220 211 207 216 230 237
96 95 102 97 95 104 114 129 162 195 176 168 178 195 195 200 195 194 207 209 205 209 222 224 235 234 220 209 206 206 208 201 203 215 221 229 227 231 225 224 237 239 232
130 113 115 106 34 59 119 137 231 205 157 156 180 195 198 201 194 192 210 222 216 214 222 215 225 237 230 219 207 204 209 205 211 224 221 225 230 236 236 238 243 239 224
166 163 140 117 20 3 22 195 214 174 137 170 194 194 194 205 208 204 206 212 221 218 218 217 217 224 225 221 212 207 208 210 219 235 240 235 238 242 245 252 245 229 223
194 174 163 172 213 260 285 263 154 128 167 199 198 197 203 203 213 222 221 218 226 217 210 215 209 203 218 227 207 196 204 201 208 195 189 276 266 260 262 258 252 240 230
174 171 169 176 211 214 289 300 261 178 189 226 223 206 205 203 205 208 247 256 235 240 227 219 210 211 211 210 209 205 205 197 172 157 194 224 235 239 245 245 249 242 233
Height
1502 1507 1510 1513 1516 1519 1522 1524 1526 1529 1531 1533 1535 1537 1538 1540 1541 1542 1543 1544 1545 1546 1546 1547 1547 1548 1548 1548 1549 1550 1550 1551 1551 1551 1551 1551 1551 1550 1550 1550 1550 1550 1550
1501 1505 1508 1511 1514 1516 1519 1522 1524 1527 1529 1531 1533 1536 1537 1538 1540 1541 1541 1542 1543 1544 1545 1545 1546 1546 1546 1547 1547 1548 1548 1549 1550 1550 1550 1549 1550 1548 1548 1548 1548 1548 1549
1496 1500 1504 1507 1510 1513 1516 1518 1521 1524 1527 1529 1532 1534 1536 1537 1538 1538 1539 1540 1541 1542 1543 1543 1544 1544 1545 1545 1546 1546 1547 1547 1548 1548 1549 1548 1547 1547 1546 1546 1546 1546 1546
1493 1496 1499 1503 1506 1509 1512 1516 1519 1522 1524 1527 1529 1531 1532 1533 1534 1536 1537 1539 1540 1540 1541 1541 1542 1542 1543 1543 1544 1544 1545 1545 1546 1546 1547 1547 1547 1546 1545 1545 1544 1544 1544
1490 1492 1495 1498 1502 1506 1509 1513 1516 1519 1522 1524 1526 1528 1530 1531 1533 1534 1536 1537 1537 1538 1539 1539 1540 1540 1541 1541 1542 1542 1543 1543 1544 1544 1544 1545 1545 1545 1544 1543 1542 1542 1542
1487 1489 1493 1497 1500 1504 1507 1510 1513 1515 1518 1521 1523 1525 1527 1529 1530 1531 1532 1533 1534 1535 1536 1537 1537 1538 1538 1539 1539 1540 1540 1540 1541 1542 1542 1542 1542 1542 1542 1541 1540 1540 1540
1484 1487 1491 1494 1496 1500 1502 1506 1509 1512 1514 1517 1519 1521 1524 1526 1527 1528 1529 1530 1531 1532 1533 1534 1534 1535 1536 1536 1537 1537 1537 1538 1538 1539 1539 1539 1539 1540 1540 1539 1538 1538 1538
1480 1482 1485 1488 1491 1495 1498 1501 1504 1507 1511 1513 1515 1518 1521 1522 1524 1525 1526 1527 1528 1529 1530 1531 1531 1532 1533 1534 1534 1534 1535 1535 1535 1535 1536 1536 1536 1537 1537 1537 1536 1535 1535
1476 1479 1481 1484 1487 1490 1493 1496 1499 1503 1506 1509 1512 1514 1517 1518 1520 1522 1523 1523 1524 1526 1527 1528 1528 1529 1530 1531 1531 1531 1532 1532 1532 1532 1532 1532 1533 1534 1534 1534 1534 1534 1532
1473 1476 1478 1481 1484 1486 1489 1492 1496 1499 1501 1505 1508 1510 1512 1515 1516 1518 1519 1520 1521 1522 1523 1524 1525 1526 1526 1527 1528 1528 1528 1529 1529 1529 1529 1529 1529 1530 1530 1531 1531 1531 1530
1471 1473 1475 1477 1480 1483 1486 1489 1492 1495 1498 1501 1503 1506 1508 1511 1513 1514 1515 1516 1517 1519 1519 1520 1521 1521 1522 1523 1524 1524 1525 1525 1525 1525 1525 1525 1526 1526 1526 1527 1527 1527 1527
1470 1471 1473 1475 1478 1480 1482 1484 1487 1491 1494 1496 1499 1502 1504 1506 1508 1510 1511 1512 1513 1514 1515 1516 1517 1517 1518 1519 1520 1520 1520 1521 1521 1521 1522 1522 1522 1522 1522 1522 1523 1523 1523
1469 1470 1471 1472 1475 1476 1479 1481 1483 1486 1490 1493 1495 1497 1499 1501 1503 1505 1507 1507 1509 1510 1510 1511 1512 1513 1514 1515 1516 1516 1516 1517 1517 1517 1518 1518 1518 1518 1518 1518 1518 1518 1519
1469 1469 1469 1471 1473 1474 1475 1477 1480 1482 1485 1488 1491 1492 1494 1496 1498 1500 1501 1503 1504 1505 1505 1506 1507 1508 1509 1511 1512 1512 1512 1512 1513 1513 1514 1514 1514 1514 1514 1514 1514 1514 1514
1468 1469 1468 1470 1471 1472 1473 1475 1476 1479 1481 1483 1486 1488 1490 1492 1494 1495 1496 1498 1499 1500 1500 1501 1502 1503 1504 1506 1507 1507 1508 1508 1509 1509 1509 1510 1510 1510 1510 1510 1510 1510 1510
1467 1467 1467 1468 1468 1469 1470 1471 1472 1474 1477 1479 1481 1483 1486 1488 1489 1490 1492 1493 1494 1495 1496 1496 1497 1498 1499 1501 1502 1503 1504 1504 1504 1505 1505 1505 1506 1505 1506 1506 1506 1506 1506
1464 1465 1466 1466 1467 1467 1468 1468 1469 1471 1473 1474 1477 1479 1481 1482 1484 1486 1487 1488 1490 1491 1491 1492 1493 1494 1495 1497 1498 1499 1499 1500 1500 1500 1501 1501 1501 1501 1501 1501 1501 1502 1502
1461 1462 1463 1464 1465 1465 1466 1467 1467 1468 1469 1471 1473 1475 1477 1479 1480 1481 1482 1484 1485 1486 1488 1488 1489 1490 1491 1492 1493 1494 1495 1495 1496 1496 1496 1496 1496 1497 1497 1497 1497 1497 1497
1461 1461 1462 1463 1462 1462 1463 1464 1464 1466 1467 1469 1471 1472 1473 1474 1475 1476 1478 1479 1481 1482 1482 1484 1485 1485 1485 1487 1488 1489 1490 1491 1492 1492 1492 1492 1492 1492 1493 1493 1492 1492 1492
1460 1460 1460 1460 1460 1460 1461 1461 1462 1463 1464 1466 1467 1469 1470 1471 1472 1473 1475 1476 1477 1478 1479 1480 1480 1481 1481 1483 1483 1485 1485 1486 1487 1487 1487 1488 1488 1488 1488 1488 1488 1488 1488
1459 1459 1459 1458 1458 1458 1458 1459 1459 1460 1462 1463 1464 1466 1467 1468 1469 1471 1472 1473 1474 1474 1475 1476 1477 1477 1477 1478 1480 1481 1481 1482 1482 1482 1483 1483 1483 1484 1484 1484 1484 1483 1484
1457 1458 1458 1457 1457 1456 1456 1456 1457 1458 1458 1459 1460 1462 1463 1465 1466 1467 1468 1469 1470 1471 1471 1471 1473 1473 1474 1474 1475 1476 1477 1478 1477 1477 1478 1478 1479 1479 1479 1479 1479 1479 1479
1456 1456 1456 1456 1455 1455 1455 1454 1455 1455 1456 1456 1457 1458 1459 1461 1462 1463 1465 1466 1466 1466 1466 1467 1468 1469 1470 1470 1471 1471 1472 1473 1473 1473 1473 1474 1474 1474 1474 1474 1474 1474 1474
1454 1454 1455 1454 1454 1453 1452 1452 1453 1453 1453 1454 1454 1455 1456 1457 1458 1459 1460 1461 1461 1461 1462 1462 1463 1464 1465 1466 1466 1467 1468 1468 1469 1469 1468 1469 1469 1469 1469 1469 1469 1469 1469
1453 1453 1453 1452 1452 1451 1452 1451 1450 1450 1451 1451 1452 1452 1453 1454 1454 1454 1455 1456 1457 1457 1457 1458 1458 1458 1459 1460 1462 1462 1463 1463 1464 1464 1464 1464 1464 1464 1463 1463 1463 1463 1464
1451 1451 1450 1450 1450 1449 1449 1448 1448 1448 1448 1448 1449 1449 1450 1450 1450 1451 1451 1451 1452 1452 1452 1453 1454 1454 1455 1456 1458 1458 1459 1459 1459 1459 1459 1458 1459 1459 1459 1458 1458 1458 1458